Location: Burla
(50.9568°N, 10.4983°E)
Time: 11:51:04
(UTC+00:00)

Cosmos 1140 Rocket - Pass Details

Date: 18 January 2026
Orbit: 739 x 763 km, 74.1° (Epoch: 16 February)

Event Time Altitude Azimuth Distance (km) Brightness Sun altitude
Rises 04:29:08 0° 187° (S) 3,162 6.6 -25.0°
Reaches altitude 10° 04:31:31 10° 182° (S) 2,245 5.9 -24.7°
Maximum altitude 04:36:26 52° 107° (ESE) 920 4.2 -23.9°
Drops below altitude 10° 04:41:25 10° 32° (NNE) 2,272 6.3 -23.1°
Sets 04:43:50 0° 28° (NNE) 3,204 7.0 -22.7°
